www.pogodaiklimat.ru

Погода и климат >> Архив погоды >> Австралия >> Тасмания >> Мыс Грим Бапс


ПОГОДА на Мысе Грим Бапс

  • Прогноз погоды на Мысе Грим Бапс
  • Монитор погоды на Мысе Грим Бапс

АРХИВ ПОГОДЫ на Мысе Грим Бапс

Время (UTC), дата Ветер
(напр.,м/с)
 
Видим.   Явления Облачность Т
(С)
Тd
(С)
f
(%)
Тe
(С)
Тes
(С)
Комфортность P
(гПа)
Po
(гПа)
Тmin
(С)
Tmax
(С)
R
(мм)
R24
(мм)
S
(см)
13 14.07 ЮЗ 26 н/о н/о +8.9 +3.9 71 +2 +2 1008.9 997.8
14 14.07 ЮЗ 22 н/о туман местами н/о +8.5 +5.9 84 +1 +1 1010.8 999.7 +11.1
15 14.07 ЮЗ 24 н/о н/о +8.7 +4.2 73 +2 +2 1011.5 1000.4
16 14.07 ЮЗ 21 н/о н/о +9.7 +4.8 71 +4 +4 1012.9 1001.7
17 14.07 ЮЗ 24 н/о {туман} н/о +10.0 +4.4 68 +4 +4 1013.3 1002.1
18 14.07 ЮЗ 21 н/о н/о +9.6 +4.2 69 +3 +3 1014.0 1002.8
19 14.07 ЮЗ 19 н/о н/о +9.4 +5.4 76 +3 +3 1014.7 1003.5
20 14.07 ЮЗ 19 н/о н/о +10.1 +4.8 70 +4 +4 1015.5 1004.3
21 14.07 ЮЗ 18 н/о н/о +10.0 +4.1 67 +4 +4 1016.8 1005.6
22 14.07 ЮЗ 16 н/о н/о +10.1 +4.3 67 +5 +5 1017.3 1006.1
23 14.07 ЮЗ 16 н/о н/о +10.4 +4.1 65 +5 +5 1017.6 1006.4
00 15.07 ЮЗ 15 н/о н/о +10.6 +5.6 71 +6 +6 1017.8 1006.6
01 15.07 З 13 н/о н/о +10.4 +9.0 91 +5 +5 1017.9 1006.7
02 15.07 З 16 н/о в посл. час дождь {туман} н/о +11.1 +9.5 90 +6 +6 1016.4 1005.2 +7.4
03 15.07 З 18 н/о н/о +11.6 +10.2 91 +6 +6 1015.5 1004.3
04 15.07 З 20 н/о н/о +11.7 +10.1 90 +6 +6 1015.0 1003.8
05 15.07 ЮЗ 22 н/о {туман} н/о +11.1 +9.1 87 +5 +5 1015.3 1004.1
06 15.07 ЮЗ 22 н/о н/о +10.7 +8.2 85 +5 +5 1015.8 1004.6
07 15.07 ЮЗ 21 н/о н/о +10.8 +8.6 86 +5 +5 1016.0 1004.8
08 15.07 ЮЗ 19 н/о в посл. час дождь {туман} н/о +11.0 +7.9 81 +6 +6 1016.3 1005.1
09 15.07 ЮЗ 20 н/о н/о +10.5 +8.0 84 +5 +5 1016.7 1005.5
10 15.07 З 20 н/о н/о +10.4 +8.8 90 +5 +5 1017.1 1005.9
11 15.07 ЮЗ 19 н/о туман местами н/о +10.5 +8.5 87 +5 +5 1017.3 1006.1
12 15.07 З 20 н/о н/о +10.3 +8.9 91 +4 +4 1017.2 1006.0
13 15.07 ЮЗ 17 н/о н/о +10.0 +8.6 91 +4 +4 1017.1 1005.9
14 15.07 З 20 н/о в посл. час дождь {туман} н/о +10.3 +7.2 81 +4 +4 1017.0 1005.8 +12.1
15 15.07 ЮЗ 20 н/о н/о +10.5 +6.7 77 +5 +5 1016.6 1005.4
16 15.07 З 21 н/о н/о +10.2 +6.8 79 +4 +4 1016.2 1005.0
17 15.07 ЮЗ 19 н/о в посл. час дождь {туман} н/о +10.4 +5.9 74 +5 +5 1016.2 1005.0
18 15.07 З 20 н/о н/о +10.5 +7.1 79 +5 +5 1016.1 1004.9
19 15.07 З 18 н/о н/о +10.5 +8.7 89 +5 +5 1015.3 1004.1
20 15.07 З 20 н/о {туман} н/о +10.7 +9.1 90 +5 +5 1015.5 1004.3
21 15.07 З 22 н/о н/о +10.9 +9.7 92 +5 +5 1015.7 1004.5
22 15.07 ЮЗ 23 н/о н/о +11.0 +10.2 95 +5 +5 1016.0 1004.8
23 15.07 З 23 н/о {туман} н/о +11.2 +9.6 90 +5 +5 1015.9 1004.7
00 16.07 ЮЗ 23 н/о н/о +11.6 +9.6 88 +6 +6 1016.0 1004.8
01 16.07 ЮЗ 21 н/о н/о +11.9 +9.7 86 +7 +7 1016.1 1004.9
02 16.07 ЮЗ 22 н/о н/о +11.7 +9.3 85 +6 +6 1015.5 1004.3 +9.0
03 16.07 ЮЗ 19 н/о н/о +11.6 +8.8 83 +6 +6 1015.7 1004.5
04 16.07 ЮЗ 20 н/о н/о +12.1 +8.5 79 +7 +7 1015.9 1004.7
05 16.07 ЮЗ 20 н/о н/о +11.5 +9.3 86 +6 +6 1015.7 1004.5
06 16.07 ЮЗ 19 н/о н/о +11.3 +9.9 91 +6 +6 1016.1 1004.9
07 16.07 З 20 н/о н/о +11.0 +10.0 94 +5 +5 1016.1 1004.9
08 16.07 ЮЗ 17 н/о туман местами н/о +10.7 +9.7 94 +5 +5 1016.5 1005.3
09 16.07 З 16 н/о н/о +10.7 +9.1 90 +5 +5 1016.9 1005.7
10 16.07 З 17 н/о н/о +11.2 +7.9 80 +6 +6 1016.4 1005.2
11 16.07 З 15 н/о {туман} н/о +10.5 +8.0 84 +5 +5 1016.4 1005.2
12 16.07 З 16 н/о н/о +11.0 +7.5 79 +6 +6 1016.4 1005.2
13 16.07 З 15 н/о н/о +10.7 +7.6 81 +6 +6 1016.1 1004.9
14 16.07 З 14 н/о {туман} н/о +9.7 +7.8 88 +4 +4 1015.7 1004.5 +12.6
15 16.07 З 13 н/о н/о +9.9 +8.7 92 +5 +5 1014.9 1003.7
16 16.07 З 12 н/о н/о +10.1 +8.5 90 +5 +5 1014.1 1002.9
17 16.07 З 13 н/о {туман} н/о +10.5 +8.3 86 +6 +6 1013.6 1002.4
18 16.07 З 12 н/о н/о +10.9 +7.1 77 +7 +7 1012.5 1001.3
19 16.07 З 14 н/о н/о +11.2 +7.3 77 +7 +7 1011.6 1000.5
20 16.07 З 16 н/о н/о +11.3 +7.8 79 +6 +6 1010.6 999.5
21 16.07 З 16 н/о н/о +11.4 +7.7 78 +7 +7 1010.3 999.2
22 16.07 З 15 н/о н/о +11.4 +7.9 79 +7 +7 1009.9 998.8
23 16.07 З 15 н/о н/о +11.5 +8.7 83 +7 +7 1009.7 998.6
00 17.07 З 17 н/о н/о +11.8 +8.6 81 +7 +7 1008.9 997.8
01 17.07 З 19 н/о н/о +11.8 +9.2 84 +7 +7 1007.4 996.3
03 17.07 З 16 н/о н/о +10.6 +8.6 87 +5 +5 1005.0 993.9
04 17.07 З 24 н/о н/о +11.8 +7.5 75 +6 +6 1004.7 993.6
05 17.07 З 23 н/о {туман} н/о +10.8 +6.8 76 +5 +5 1005.0 993.9
06 17.07 З 23 н/о н/о +11.4 +5.9 69 +6 +6 1005.4 994.3
07 17.07 З 22 н/о н/о +10.7 +5.3 69 +5 +5 1006.2 995.1
08 17.07 З 23 н/о в посл. час дождь {туман} н/о +10.2 +7.3 82 +4 +4 1006.0 994.9
09 17.07 З 22 н/о н/о +10.0 +5.9 76 +4 +4 1007.2 996.1
10 17.07 ЮЗ 19 н/о н/о +10.2 +6.4 77 +4 +4 1008.7 997.6
11 17.07 З 22 н/о {туман} н/о +10.9 +3.7 61 +5 +5 1009.0 997.9
12 17.07 З 23 н/о н/о +10.3 +2.4 58 +4 +4 1009.1 998.0
13 17.07 З 22 н/о н/о +10.2 +4.4 67 +4 +4 1009.8 998.7
14 17.07 З 21 н/о {туман} н/о +9.7 +5.6 76 +4 +4 1010.2 999.1 +12.2
15 17.07 ЮЗ 24 н/о н/о +8.8 +6.2 84 +2 +2 1010.6 999.5
16 17.07 ЮЗ 20 н/о н/о +10.3 +4.8 69 +5 +5 1011.5 1000.4
17 17.07 ЮЗ 15 н/о {осадки} н/о +9.9 +5.3 73 +5 +5 1012.6 1001.4 0.6
18 17.07 ЮЗ 16 н/о н/о +9.9 +6.3 78 +4 +4 1012.4 1001.2
19 17.07 ЮЗ 15 н/о н/о +10.1 +4.5 68 +5 +5 1012.3 1001.1
20 17.07 З 13 н/о {осадки} н/о +10.2 +3.9 65 +6 +6 1012.3 1001.1
21 17.07 З 12 н/о н/о +10.2 +2.8 60 +6 +6 1012.9 1001.7
22 17.07 З 9 н/о н/о +10.5 +5.3 70 +7 +7 1013.2 1002.0
23 17.07 З 8 н/о {осадки} н/о +10.4 +3.6 63 +7 +7 1014.1 1002.9 7
00 18.07 З 7 н/о н/о +10.7 +4.5 65 +7 +7 1014.4 1003.2
01 18.07 З 11 н/о н/о +11.1 +5.0 66 +7 +7 1013.7 1002.5
02 18.07 З 12 н/о н/о +11.2 +6.1 71 +7 +7 1012.9 1001.7 +8.5
03 18.07 З 10 н/о н/о +11.6 +6.1 69 +8 +8 1012.0 1000.8
04 18.07 СЗ 8 н/о н/о +12.2 +6.6 69 +9 +9 1010.8 999.7
05 18.07 СЗ 8 н/о н/о +11.8 +6.6 70 +9 +9 1009.9 998.8
06 18.07 СЗ 9 н/о н/о +11.7 +7.4 75 +8 +8 1009.4 998.3
07 18.07 СЗ 10 н/о н/о +11.1 +7.8 80 +7 +7 1008.8 997.7
08 18.07 С 13 н/о туман местами н/о +10.3 +9.1 92 +5 +5 1007.7 996.6
09 18.07 СЗ 12 н/о н/о +10.9 +10.7 99 +6 +6 1006.7 995.6
10 18.07 СЗ 11 н/о н/о +11.6 +10.8 95 +7 +7 1005.8 994.7
11 18.07 З 20 н/о в посл. час осадки н/о +10.6 +7.7 82 +5 +5 1006.1 995.0 5
12 18.07 З 21 н/о н/о +10.2 +5.2 71 +4 +4 1008.6 997.5
13 18.07 З 19 н/о н/о +10.6 +5.6 71 +5 +5 1009.3 998.2
14 18.07 З 17 н/о н/о +10.9 +4.5 65 +6 +6 1010.1 999.0 +12.6
15 18.07 ЮЗ 15 н/о н/о +9.8 +6.6 80 +4 +4 1010.5 999.4
16 18.07 З 16 н/о н/о +10.3 +2.9 60 +5 +5 1011.6 1000.5
17 18.07 З 16 н/о н/о +10.7 +3.7 62 +6 +6 1012.5 1001.3
18 18.07 З 15 н/о н/о +10.6 +2.8 58 +6 +6 1012.6 1001.4
19 18.07 З 14 н/о н/о +10.8 +4.1 63 +6 +6 1013.0 1001.8
20 18.07 З 14 н/о н/о +10.5 +2.6 58 +6 +6 1014.1 1002.9
21 18.07 З 15 н/о н/о +10.8 +3.6 61 +6 +6 1014.8 1003.6
22 18.07 З 14 н/о н/о +10.9 +5.0 67 +6 +6 1015.7 1004.5
23 18.07 З 15 н/о н/о +11.5 +6.2 70 +7 +7 1016.4 1005.2
00 19.07 З 14 н/о н/о +11.0 +5.1 67 +6 +6 1017.1 1005.9
01 19.07 З 11 н/о н/о +11.1 +6.4 73 +7 +7 1017.8 1006.6
02 19.07 З 11 н/о н/о +12.8 +5.3 60 +10 +10 1017.3 1006.1 +9.9
03 19.07 З 11 н/о н/о +12.7 +3.6 54 +9 +9 1016.7 1005.5
04 19.07 З 9 н/о н/о +12.5 +6.4 66 +9 +9 1016.9 1005.7
05 19.07 З 10 н/о н/о +11.6 +4.8 63 +8 +8 1017.3 1006.1
06 19.07 З 8 н/о н/о +10.7 +6.7 76 +7 +7 1017.1 1005.9
07 19.07 З 10 н/о н/о +10.8 +5.8 71 +7 +7 1017.1 1005.9
08 19.07 З 9 н/о н/о +11.3 +5.9 69 +8 +8 1017.8 1006.6
09 19.07 З 13 н/о н/о +9.5 +7.6 88 +4 +4 1018.4 1007.2
10 19.07 СЗ 6 н/о н/о +9.5 +7.8 89 +6 +6 1018.5 1007.3
11 19.07 З 10 н/о {туман} н/о +11.0 +4.8 66 +7 +7 1018.4 1007.2
12 19.07 З 8 н/о н/о +10.4 +7.5 82 +6 +6 1018.4 1007.2
13 19.07 СЗ 6 н/о н/о +11.6 +4.8 63 +9 +9 1018.4 1007.2
14 19.07 СЗ 8 н/о н/о +11.4 +5.3 66 +8 +8 1017.7 1006.5 +13.3
15 19.07 СЗ 7 н/о н/о +11.4 +3.8 60 +8 +8 1017.7 1006.5
16 19.07 СЗ 8 н/о н/о +11.4 +4.8 64 +8 +8 1017.2 1006.0
17 19.07 С 8 н/о н/о +11.4 +5.6 67 +8 +8 1016.8 1005.6
18 19.07 СЗ 8 н/о н/о +11.8 +7.2 73 +9 +9 1016.1 1004.9
19 19.07 С 10 н/о н/о +11.4 +8.1 80 +8 +8 1015.8 1004.6
20 19.07 С 9 н/о н/о +11.0 +8.4 84 +7 +7 1015.2 1004.0
21 19.07 С 10 н/о н/о +11.2 +9.4 89 +7 +7 1015.2 1004.0
22 19.07 С 11 н/о н/о +11.8 +9.8 88 +8 +8 1015.3 1004.1
23 19.07 С 11 н/о н/о +12.2 +9.7 85 +8 +8 1015.4 1004.2
00 20.07 С 11 н/о н/о +12.8 +9.5 80 +9 +9 1014.9 1003.7
01 20.07 С 12 н/о н/о +13.1 +9.6 79 +10 +10 1014.5 1003.3
02 20.07 С 11 н/о н/о +14.0 +9.5 74 +11 +11 1013.5 1002.3 +9.4
03 20.07 С 12 н/о н/о +13.5 +9.0 74 +10 +10 1012.5 1001.3
04 20.07 С 12 н/о н/о +13.1 +8.5 74 +10 +10 1011.3 1000.2
05 20.07 С 12 н/о н/о +13.1 +9.2 77 +10 +10 1011.0 999.9
06 20.07 С 13 н/о н/о +12.6 +9.3 80 +9 +9 1010.3 999.2
07 20.07 С 14 н/о н/о +12.3 +9.3 82 +8 +8 1009.9 998.8
08 20.07 С 13 н/о н/о +12.2 +9.0 81 +8 +8 1009.7 998.6
09 20.07 С 13 н/о н/о +12.4 +9.0 80 +8 +8 1009.5 998.4
10 20.07 С 14 н/о н/о +12.7 +8.7 77 +9 +9 1009.4 998.3
11 20.07 С 13 н/о н/о +12.6 +9.3 80 +9 +9 1009.3 998.2
12 20.07 С 14 н/о н/о +12.5 +8.9 79 +8 +8 1008.7 997.6
13 20.07 С 15 н/о н/о +12.3 +9.1 81 +8 +8 1007.8 996.7
14 20.07 С 15 н/о н/о +12.3 +8.9 80 +8 +8 1006.9 995.8 +14.2
15 20.07 С 14 н/о н/о +12.2 +8.8 80 +8 +8 1005.6 994.5
16 20.07 С 15 н/о н/о +12.4 +8.4 77 +8 +8 1004.7 993.6
17 20.07 С 15 н/о н/о +12.5 +8.3 76 +8 +8 1003.2 992.1
18 20.07 С 16 н/о н/о +12.6 +7.7 72 +8 +8 1002.0 991.0
19 20.07 С 15 н/о н/о +12.9 +7.9 72 +9 +9 1001.1 990.1
20 20.07 С 14 н/о н/о +12.7 +7.9 73 +9 +9 1001.1 990.1
21 20.07 СЗ 10 н/о н/о +11.2 +9.6 90 +7 +7 1001.6 990.6
22 20.07 З 22 н/о н/о +11.6 +8.6 82 +6 +6 1001.9 990.9
23 20.07 З 19 н/о {туман} н/о +11.4 +6.1 70 +6 +6 1003.4 992.3
00 21.07 З 15 н/о н/о +11.4 +6.8 73 +7 +7 1005.0 993.9
01 21.07 З 20 н/о н/о +10.4 +6.4 76 +5 +5 1004.6 993.5
02 21.07 З 16 н/о в посл. час дождь {туман} н/о +11.4 +5.1 65 +7 +7 1005.9 994.8 +9.8
03 21.07 З 22 н/о н/о +10.5 +6.5 76 +5 +5 1005.3 994.2
04 21.07 З 15 н/о н/о +11.6 +3.8 59 +7 +7 1006.1 995.0
05 21.07 З 11 н/о {туман} н/о +11.5 +4.2 61 +8 +8 1006.7 995.6
06 21.07 З 15 н/о н/о +11.4 +5.1 65 +7 +7 1007.3 996.2
07 21.07 СЗ 6 н/о н/о +10.4 +6.4 76 +7 +7 1008.1 997.0
08 21.07 СЗ 9 н/о в посл. час дождь {туман} н/о +10.2 +7.5 83 +6 +6 1008.5 997.4
09 21.07 З 14 н/о н/о +11.6 +6.8 72 +7 +7 1008.9 997.8
10 21.07 СЗ 7 н/о н/о +11.5 +7.8 78 +8 +8 1009.4 998.3
11 21.07 СЗ 9 н/о {туман} н/о +12.0 +7.7 75 +9 +9 1009.2 998.1
12 21.07 СЗ 10 н/о н/о +11.5 +7.8 78 +8 +8 1009.5 998.4

 

Местоположение метеостанции Мыс Грим Бапс (Тасмания, Австралия): широта -40.66 долгота 144.68 высота над уровнем моря 92 м.

В архиве по умолчанию представлена погода на Мысе Грим Бапс за последнюю неделю. Архивные данные за месяц целиком и за предыдущие месяцы, начиная с января 2011 года, Вы можете получить, выбрав интересующий диапазон дат из раскрывающегося списка и нажав кнопку "Ввод!".


*Определитесь, кто Вы:
робот инопланетянин человек

Внимание! Время в таблицах - всемирное. Для получения местного времени необходимо прибавить поправку, которая равна 10 ч.

Смотрите также архив погоды в соседних городах и на ближайших метеорологических станциях:

Погода на Мысе Грим (Тасмания, Австралия) (1 км)
Погода в Смиттоне (Тасмания, Австралия) (39 км)
Погода в Ланчеон Хилл (Тасмания, Австралия) (67 км)
Погода в Виньярде (Тасмания, Австралия) (96 км)
Погода в Острове Кинг аэропорту (Виктория, Австралия) (110 км)
Погода в Ньютон Крик (Тасмания, Австралия) (150 км)
Погода в Девонпорте (Тасмания, Австралия) (157 км)
Погода в Шеффилде (Тасмания, Австралия) (159 км)
Погода в Страхане (Тасмания, Австралия) (173 км)
Погода на Мысе Сорелл (Тасмания, Австралия) (176 км)

Пояснения к столбцам:

Ветер - указаны скорость ветра в м/с - средняя за 10 мин, порывы в срок и между сроками (в фигурных скобках) и направление, откуда дует ветер: С - северный, СВ - северо-восточный, В - восточный, ЮВ - юго-восточный, Ю - южный, ЮЗ - юго-западный, З - западный, СЗ - северо-западный.
Видимость - горизонтальная дальность видимости в метрах или километрах. При видимости от 1 до 10 км при отсутствии осадков обычно наблюдается дымка, при ухудшении видимости до 1 км и менее - туман. В сухую погоду видимость может ухудшаться дымом, пылью или мглою.
Явления - указаны атмосферные явления, наблюдавшиеся в срок или в последний час перед сроком; фигурными скобками обозначены явления, наблюдавшиеся между сроками (за 1-3 часа до срока); квадратными скобками обозначены град или гололедные отложения с указанием их диаметра в мм.
Облачность - указаны через наклонную черту общая и нижняя облачность в баллах и высота нижней границы облаков в метрах; квадратными скобками обозначены формы облаков: Ci - перистые, Cs - перисто-слоистые, Cc - перисто-кучевые, Ac - высококучевые, As - высокослоистые, Sc - слоисто-кучевые, Ns - слоисто-дождевые, Cu - кучевые, Cb - кучево-дождевые. Подробнее классификацию облаков см. в Атласе облаков (PDF).
T - Температура воздуха - температура, измеренная на высоте 2 м над землей.
Td - Температура точки росы - температура, при понижении до которой содержащийся в воздухе водяной пар достигнет насыщения.
f - Относительная влажность воздуха - влажноcть воздуха, измеренная на высоте 2 м над землей.
Te - Эффективная температура - температура, которую ощущает одетый по сезону человек в тени. Характеристика душности погоды. При расчете учитывается влияние влажности воздуха и скорости ветра на теплоощущения человека.
Tes - Эффективная температура на солнце - температура, которую ощущает человек, с поправкой на солнечный нагрев. Характеристика знойности погоды. Зависит от высоты солнца над горизонтом, облачности и скорости ветра. Ночью, в пасмурную погоду, а также при ветре 12 м/с и более поправка равна нулю.
P - Атмосферное давление - приведенное к уровню моря атмосферное давление.
Po - Атмосферное давление - измеренное на уровне метеостанции атмосферное давление.
Tmin - Минимальная температура - минимум температуры воздуха на высоте 2 м над землей.
Tmax - Максимальная температура - максимум температуры воздуха на высоте 2 м над землей.
R - Количество осадков - Количество выпавших осадков за период времени, мм. При наведении курсора мыши на число - период времени, за который выпало указанное количество осадков.
R24 - Количество осадков - Количество выпавших осадков за 24 часа, мм.
S - Снежный покров - Высота снежного покрова, см. При наведении курсора мыши на число - состояние снежного покрова и степень покрытия местности в баллах.